Location: Unspecified
(48.9757°N, 0.0000°E)
Time: 09:40:19
(UTC+00:00)

Envisat - Visible Passes

Search period start: 21 October 2019 00:00
Search period end: 31 October 2019 00:00
Orbit: 764 x 766 km, 98.1° (Epoch: 21 October)

Date Brightness Start Highest point End Pass type
(mag) Time Alt. Az. Time Alt. Az. Time Alt. Az.
21 Oct 6.2 05:38:44 10° NE 05:41:40 15° E 05:44:36 10° ESE visible
21 Oct 4.3 18:35:09 10° SSW 18:39:57 42° W 18:44:47 10° NNW visible
22 Oct 3.1 17:57:59 10° SSE 18:03:04 85° WSW 18:08:11 10° NNW visible
22 Oct 6.1 19:40:40 10° WSW 19:42:52 13° W 19:45:06 10° WNW visible
23 Oct 3.2 17:21:31 10° SE 17:26:23 48° ENE 17:31:17 10° N visible
23 Oct 5.2 19:01:26 10° SSW 19:05:38 26° W 19:09:54 10° NW visible
24 Oct 6.4 05:28:13 10° ENE 05:30:14 12° E 05:32:15 10° ESE visible
24 Oct 3.9 18:23:41 10° S 18:28:38 52° W 18:33:37 10° NNW visible
25 Oct 2.9 17:46:44 10° SSE 17:51:48 79° ENE 17:56:55 10° NNW visible
25 Oct 5.9 19:28:24 10° SW 19:31:27 16° W 19:34:31 10° NW visible
26 Oct 6.0 05:52:20 10° NE 05:56:06 20° E 05:59:50 10° SE visible
26 Oct 4.8 18:49:47 10° SSW 18:54:17 32° W 18:58:50 10° NNW visible
27 Oct 3.5 18:12:17 10° S 18:17:19 64° WSW 18:22:24 10° NNW visible
28 Oct 3.0 17:35:33 10° SSE 17:40:34 64° ENE 17:45:37 10° N visible
28 Oct 5.6 19:16:24 10° SW 19:20:02 20° W 19:23:43 10° NW visible
29 Oct 6.1 05:41:29 10° NE 05:44:42 17° E 05:47:53 10° SE visible
29 Oct 4.4 18:38:13 10° SSW 18:42:57 39° W 18:47:43 10° NNW visible
30 Oct 3.1 18:00:58 10° S 18:06:02 79° WSW 18:11:10 10° NNW visible
30 Oct 6.2 19:44:11 10° WSW 19:45:55 12° W 19:47:38 10° WNW visible
